Location: ??????????
(48.5701°N, 37.7703°E)
Time: 19:59:04
(UTC+00:00)

SL-8 R/B - Pass Details

Date: 14 July 2020
Orbit: 656 x 668 km, 48.4° (Epoch: 11 August)

Event Time Altitude Azimuth Distance (km) Brightness Sun altitude
Exits shadow 00:08:40 10° 255° (WSW) 2,104 5.8 -11.8°
Reaches altitude 10° 00:08:43 10° 255° (WSW) 2,083 5.8 -11.8°
Maximum altitude 00:13:32 81° 170° (S) 675 3.7 -11.4°
Drops below altitude 10° 00:18:21 10° 83° (E) 2,079 7.0 -10.9°
Sets 00:20:41 0° 82° (E) 2,990 7.8 -10.6°
